Hourly Weather Russko-Nikolskoe

Today, 16 April, Friday

Time Temperature Precipitation Wind Pressure Humidity
00:00 +13°C° 0 mm 3 mps 746 mmHg 62%
01:00 +13°C° 0 mm 2 mps 746 mmHg 64%
02:00 +13°C° 0 mm 1 mps 746 mmHg 66%
03:00 +12°C° 0 mm 1 mps 746 mmHg 68%
04:00 +12°C° 0 mm 2 mps 746 mmHg 67%
05:00 +12°C° 0 mm 2 mps 747 mmHg 67%
06:00 +11°C° 0 mm 3 mps 747 mmHg 66%
07:00 +12°C° 0 mm 3 mps 747 mmHg 62%
08:00 +13°C° 0 mm 3 mps 747 mmHg 58%
09:00 +14°C° 0 mm 3 mps 747 mmHg 54%
10:00 +17°C° 0 mm 4 mps 748 mmHg 50%
11:00 +18°C° 0 mm 4 mps 748 mmHg 46%
12:00 +19°C° 0 mm 4 mps 748 mmHg 42%
13:00 +19°C° 0 mm 4 mps 748 mmHg 40%
14:00 +20°C° 0 mm 4 mps 748 mmHg 38%
15:00 +20°C° 0 mm 4 mps 748 mmHg 37%
16:00 +20°C° 0 mm 4 mps 748 mmHg 39%
17:00 +19°C° 0 mm 3 mps 748 mmHg 42%
18:00 +18°C° 0 mm 3 mps 748 mmHg 45%
19:00 +17°C° 0 mm 3 mps 748 mmHg 50%
20:00 +15°C° 0 mm 4 mps 748 mmHg 55%
21:00 +13°C° 0 mm 4 mps 748 mmHg 59%
22:00 +12°C° 0 mm 4 mps 748 mmHg 65%
23:00 +12°C° 0 mm 4 mps 749 mmHg 71%

Tomorrow, 17 April, Saturday

Time Temperature Precipitation Wind Pressure Humidity
00:00 +11°C° 0 mm 4 mps 749 mmHg 77%
01:00 +10°C° 0 mm 4 mps 749 mmHg 81%
02:00 +10°C° 0 mm 4 mps 749 mmHg 84%
03:00 +8°C° 0 mm 4 mps 749 mmHg 88%
04:00 +8°C° 0 mm 4 mps 749 mmHg 88%
05:00 +8°C° 0 mm 5 mps 749 mmHg 89%
06:00 +8°C° 0 mm 5 mps 749 mmHg 89%
07:00 +9°C° 0 mm 5 mps 749 mmHg 80%
08:00 +11°C° 0 mm 6 mps 749 mmHg 71%
09:00 +14°C° 0 mm 7 mps 749 mmHg 62%
10:00 +15°C° 0 mm 7 mps 749 mmHg 56%
11:00 +17°C° 0 mm 7 mps 749 mmHg 50%
12:00 +18°C° 0 mm 7 mps 749 mmHg 44%
13:00 +18°C° 0 mm 7 mps 749 mmHg 45%
14:00 +18°C° 0 mm 7 mps 748 mmHg 47%
15:00 +17°C° 0 mm 7 mps 748 mmHg 48%
16:00 +15°C° 0.3 mm 6 mps 748 mmHg 58%
17:00 +13°C° 0.3 mm 5 mps 749 mmHg 69%
18:00 +11°C° 0.3 mm 4 mps 749 mmHg 79%
19:00 +11°C° 0.5 mm 3 mps 749 mmHg 81%
20:00 +10°C° 0.5 mm 2 mps 750 mmHg 83%
21:00 +10°C° 0.5 mm 1 mps 750 mmHg 86%
22:00 +10°C° 1.4 mm 1 mps 750 mmHg 87%
23:00 +10°C° 1.4 mm 1 mps 750 mmHg 89%

Day after tomorrow, 18 April, Sunday

Time Temperature Precipitation Wind Pressure Humidity
00:00 +9°C° 1.4 mm 1 mps 749 mmHg 91%
01:00 +9°C° 1 mm 1 mps 749 mmHg 92%
02:00 +9°C° 1 mm 1 mps 749 mmHg 93%
03:00 +9°C° 1 mm 1 mps 749 mmHg 93%
04:00 +9°C° 0.2 mm 1 mps 749 mmHg 94%
05:00 +9°C° 0.2 mm 1 mps 749 mmHg 94%
06:00 +9°C° 0.2 mm 1 mps 749 mmHg 94%
07:00 +9°C° 0.1 mm 1 mps 749 mmHg 91%
08:00 +10°C° 0.1 mm 1 mps 749 mmHg 87%
09:00 +11°C° 0.1 mm 1 mps 749 mmHg 84%
10:00 +10°C° 0 mm 2 mps 749 mmHg 81%
11:00 +10°C° 0 mm 2 mps 749 mmHg 77%
12:00 +12°C° 0 mm 2 mps 749 mmHg 74%
13:00 +11°C° 0 mm 3 mps 749 mmHg 73%
14:00 +11°C° 0 mm 3 mps 749 mmHg 72%
15:00 +12°C° 0 mm 3 mps 749 mmHg 71%
16:00 +11°C° 0 mm 4 mps 749 mmHg 75%
17:00 +10°C° 0 mm 4 mps 750 mmHg 78%
18:00 +10°C° 0 mm 4 mps 750 mmHg 82%
19:00 +8°C° 0 mm 4 mps 750 mmHg 84%
20:00 +9°C° 0 mm 3 mps 750 mmHg 87%
21:00 +8°C° 0 mm 3 mps 750 mmHg 90%
22:00 +8°C° 0 mm 3 mps 750 mmHg 90%
23:00 +8°C° 0 mm 2 mps 750 mmHg 91%

19 April, Monday

Time Temperature Precipitation Wind Pressure Humidity
00:00 +7°C° 0 mm 2 mps 750 mmHg 92%
01:00 +7°C° 0 mm 3 mps 750 mmHg 91%
02:00 +7°C° 0 mm 3 mps 750 mmHg 91%
03:00 +7°C° 0 mm 3 mps 750 mmHg 91%
04:00 +7°C° 0 mm 3 mps 750 mmHg 90%
05:00 +5°C° 0 mm 3 mps 750 mmHg 88%
06:00 +5°C° 0 mm 3 mps 751 mmHg 87%
07:00 +6°C° 0 mm 4 mps 751 mmHg 84%
08:00 +7°C° 0 mm 5 mps 751 mmHg 81%
09:00 +7°C° 0 mm 6 mps 751 mmHg 79%
10:00 +7°C° 0 mm 6 mps 751 mmHg 81%
11:00 +7°C° 0 mm 6 mps 751 mmHg 83%
12:00 +5°C° 0 mm 6 mps 751 mmHg 85%
13:00 +5°C° 0.1 mm 6 mps 751 mmHg 84%
14:00 +5°C° 0.1 mm 7 mps 751 mmHg 84%
15:00 +5°C° 0.1 mm 7 mps 751 mmHg 83%
16:00 +5°C° 0 mm 7 mps 751 mmHg 81%
17:00 +5°C° 0 mm 7 mps 751 mmHg 80%
18:00 +5°C° 0 mm 7 mps 751 mmHg 79%
19:00 +5°C° 0 mm 7 mps 751 mmHg 81%
20:00 +5°C° 0 mm 7 mps 751 mmHg 83%
21:00 +5°C° 0 mm 7 mps 751 mmHg 85%
22:00 +5°C° 0 mm 7 mps 750 mmHg 84%
23:00 +5°C° 0 mm 7 mps 750 mmHg 84%

20 April, Tuesday

Time Temperature Precipitation Wind Pressure Humidity
00:00 +4°C° 0 mm 7 mps 749 mmHg 83%
01:00 +5°C° 0 mm 8 mps 749 mmHg 83%
02:00 +5°C° 0 mm 8 mps 749 mmHg 83%
03:00 +5°C° 0 mm 8 mps 748 mmHg 83%
04:00 +5°C° 0 mm 8 mps 748 mmHg 84%
05:00 +4°C° 0 mm 8 mps 748 mmHg 84%
06:00 +3°C° 0 mm 9 mps 748 mmHg 84%
07:00 +3°C° 0 mm 9 mps 748 mmHg 83%
08:00 +5°C° 0 mm 10 mps 747 mmHg 82%
09:00 +4°C° 0 mm 11 mps 747 mmHg 80%
10:00 +6°C° 0 mm 11 mps 747 mmHg 78%
11:00 +6°C° 0 mm 11 mps 746 mmHg 75%
12:00 +7°C° 0 mm 11 mps 746 mmHg 73%
13:00 +6°C° 1 mm 11 mps 746 mmHg 77%
14:00 +6°C° 1 mm 11 mps 746 mmHg 80%
15:00 +4°C° 1 mm 11 mps 745 mmHg 84%
16:00 +4°C° 2.5 mm 12 mps 745 mmHg 85%
17:00 +4°C° 2.5 mm 12 mps 745 mmHg 86%
18:00 +3°C° 2.5 mm 12 mps 745 mmHg 88%
19:00 +4°C° 0.7 mm 13 mps 744 mmHg 88%
20:00 +4°C° 0.7 mm 13 mps 744 mmHg 88%
21:00 +4°C° 0.7 mm 13 mps 744 mmHg 88%
22:00 +5°C° 0.5 mm 13 mps 744 mmHg 89%
23:00 +5°C° 0.5 mm 12 mps 744 mmHg 89%

21 April, Wednesday

Time Temperature Precipitation Wind Pressure Humidity
00:00 +7°C° 0.5 mm 11 mps 744 mmHg 90%
01:00 +7°C° 0 mm 11 mps 744 mmHg 90%
02:00 +7°C° 0 mm 10 mps 744 mmHg 90%
03:00 +7°C° 0 mm 10 mps 744 mmHg 90%
04:00 +7°C° 0.2 mm 9 mps 745 mmHg 88%
05:00 +7°C° 0.2 mm 8 mps 745 mmHg 87%
06:00 +7°C° 0.2 mm 8 mps 745 mmHg 86%
07:00 +8°C° 0.1 mm 7 mps 746 mmHg 86%
08:00 +8°C° 0.1 mm 7 mps 746 mmHg 86%
09:00 +8°C° 0.1 mm 6 mps 746 mmHg 86%
10:00 +9°C° 0.1 mm 7 mps 747 mmHg 81%
11:00 +10°C° 0.1 mm 7 mps 747 mmHg 76%
12:00 +11°C° 0.1 mm 7 mps 747 mmHg 70%
13:00 +11°C° 0.3 mm 7 mps 747 mmHg 69%
14:00 +11°C° 0.3 mm 7 mps 747 mmHg 67%
15:00 +12°C° 0.3 mm 7 mps 747 mmHg 65%
16:00 +11°C° 0.2 mm 7 mps 748 mmHg 68%
17:00 +10°C° 0.2 mm 7 mps 748 mmHg 71%
18:00 +10°C° 0.2 mm 7 mps 748 mmHg 74%
19:00 +9°C° 0 mm 7 mps 748 mmHg 80%
20:00 +8°C° 0 mm 7 mps 749 mmHg 85%
21:00 +6°C° 0 mm 8 mps 749 mmHg 91%
22:00 +5°C° 0 mm 7 mps 749 mmHg 91%
23:00 +5°C° 0 mm 7 mps 749 mmHg 91%
Show more